Thermal, CA

11:04 AM PDT on June 22, 2017 (GMT -0700)
Desert Resorts Regional

Weather History for KTRM - February, 2014

Change the Weather History Date:

Monday, February 17, 2014

  Actual Average Record
Temperature  
Mean Temperature 64 °F 58 °F  
Max Temperature 85 °F 75 °F 91 °F (1996)
Min Temperature 43 °F 42 °F 29 °F (1956)
Degree Days  
Heating Degree Days 1 7  
Month to date heating degree days 94 140  
Since 1 July heating degree days 767 1000  
Cooling Degree Days 0 0  
Month to date cooling degree days 4 0  
Year to date cooling degree days 4 2  
Growing Degree Days 14 (Base 50)    
Moisture  
Dew Point 35 °F    
Average Humidity 41    
Maximum Humidity 65    
Minimum Humidity 16    
Precipitation  
Precipitation 0.00 in 0.03 in 0.33 in (1998)
Month to date precipitation 0.00 0.38  
Year to date precipitation T 1.05  
Since 1 July precipitation 1.47  
Snow  
Snow 0.00 in - - ()
Month to date snowfall 0.0  
Year to date snowfall 0.0  
Snow Depth 0.00 in    
Sea Level Pressure  
Sea Level Pressure 29.92 in    
Wind  
Wind Speed 4 mph (NNW)    
Max Wind Speed 12 mph    
Max Gust Speed 14 mph    
Visibility 10 miles    
Events      
T = Trace of Precipitation, MM = Missing Value Source: NWS Daily Summary

Daily Weather History Graph

Daily Weather History Graph

Search for Another Location

Airport or City:

Trip Planner

Search our weather history database for the weather conditions in past years. The results will help you decide how hot, cold, wet, or windy it might be!

Date:

Astronomy

Feb. 17, 2014 Rise Set
Actual Time 6:26 AM PST 5:31 PM PST
Civil Twilight 6:01 AM PST 5:56 PM PST
Nautical Twilight 5:32 AM PST 6:25 PM PST
Astronomical Twilight 5:03 AM PST 6:54 PM PST
Moon 8:18 PM PST (2/17) 7:39 AM PST (2/17)
Length of Visible Light 11h 55m
Length of Day
11h 04m
Waning Gibbous, 93% of the Moon is Illuminated
Feb 17
Waning Gibbous
Feb 22
Last Quarter
Mar 1
New
Mar 8
First Quarter
Mar 16
Full

Hourly Weather History & Observations

Time (PST) Temp. Windchill Dew Point Humidity Pressure Visibility Wind Dir Wind Speed Gust Speed Precip Events Conditions
12:52 AM 53.1 °F - 39.0 °F 59% 29.98 in 10.0 mi NNW 4.6 mph - N/A   Clear
1:52 AM 51.1 °F - 37.9 °F 61% 29.97 in 10.0 mi Calm Calm - N/A   Clear
2:52 AM 51.1 °F - 37.9 °F 61% 29.96 in 10.0 mi North 5.8 mph - N/A   Clear
3:52 AM 48.0 °F - 34.0 °F 58% 29.96 in 10.0 mi North 3.5 mph - N/A   Clear
4:52 AM 48.0 °F - 35.1 °F 61% 29.96 in 10.0 mi Variable 4.6 mph - N/A   Clear
5:52 AM 44.1 °F 41.5 °F 34.0 °F 68% 29.96 in 10.0 mi East 4.6 mph - N/A   Clear
6:52 AM 46.9 °F - 36.0 °F 66% 29.98 in 10.0 mi NNW 3.5 mph - N/A   Clear
7:52 AM 57.9 °F - 39.0 °F 49% 30.00 in 10.0 mi Calm Calm - N/A   Clear
8:52 AM 66.0 °F - 39.9 °F 38% 29.99 in 10.0 mi Calm Calm - N/A   Clear
9:52 AM 75.0 °F - 30.9 °F 20% 29.98 in 10.0 mi Variable 4.6 mph - N/A   Clear
10:52 AM 78.1 °F - 37.9 °F 24% 29.97 in 10.0 mi Variable 5.8 mph - N/A   Clear
11:52 AM 79.0 °F - 36.0 °F 21% 29.94 in 10.0 mi Variable 4.6 mph - N/A   Clear
12:52 PM 82.0 °F - 32.0 °F 16% 29.91 in 10.0 mi Variable 5.8 mph - N/A   Clear
1:52 PM 82.9 °F - 34.0 °F 17% 29.88 in 10.0 mi Variable 5.8 mph - N/A   Clear
2:52 PM 84.0 °F - 33.1 °F 16% 29.86 in 10.0 mi ESE 5.8 mph - N/A   Clear
3:52 PM 82.0 °F - 33.1 °F 17% 29.85 in 10.0 mi SSE 5.8 mph - N/A   Clear
4:52 PM 82.0 °F - 33.1 °F 17% 29.85 in 10.0 mi SSE 4.6 mph - N/A   Clear
5:52 PM 72.0 °F - 35.1 °F 26% 29.85 in 10.0 mi East 3.5 mph - N/A   Clear
6:52 PM 66.9 °F - 37.0 °F 33% 29.87 in 10.0 mi WNW 6.9 mph - N/A   Clear
7:52 PM 71.1 °F - 33.1 °F 25% 29.88 in 10.0 mi NNW 8.1 mph - N/A   Clear
8:52 PM 70.0 °F - 30.9 °F 24% 29.88 in 10.0 mi NW 6.9 mph - N/A   Clear
9:52 PM 68.0 °F - 33.1 °F 27% 29.89 in 10.0 mi NW 8.1 mph - N/A   Clear
10:52 PM 70.0 °F - 34.0 °F 27% 29.90 in 10.0 mi NNW 12.7 mph - N/A   Clear
11:52 PM 66.9 °F - 34.0 °F 30% 29.90 in 10.0 mi NW 9.2 mph - N/A   Clear